• In Hungary
  • List of Countries
  • For 7 days
  • Water Temperature
  • Satellite Maps
  • Weather Map
  • News
  • Weather Widgets
  • user-avatar
    Login

    Hourly Weather Potichok

    Today, 20 November, Monday

    Time Temperature Precipitation Wind Pressure Humidity
    00:00 +4°C° 0.2 mm 2 mps 749 mmHg 90%
    01:00 +4°C° 0.2 mm 2 mps 749 mmHg 91%
    02:00 +3°C° 0 mm 2 mps 749 mmHg 91%
    03:00 +3°C° 0.2 mm 2 mps 749 mmHg 91%
    04:00 +3°C° 0.2 mm 2 mps 748 mmHg 91%
    05:00 +3°C° 0.2 mm 2 mps 748 mmHg 91%
    06:00 +3°C° 0.4 mm 2 mps 748 mmHg 90%
    07:00 +2°C° 0.4 mm 3 mps 748 mmHg 90%
    08:00 +2°C° 0 mm 3 mps 748 mmHg 90%
    09:00 +2°C° 0.7 mm 3 mps 748 mmHg 88%
    10:00 +3°C° 0.7 mm 4 mps 748 mmHg 87%
    11:00 +3°C° 0.7 mm 4 mps 748 mmHg 86%
    12:00 +3°C° 0.7 mm 4 mps 747 mmHg 85%
    13:00 +2°C° 0.7 mm 5 mps 747 mmHg 84%
    14:00 +2°C° 0.7 mm 5 mps 746 mmHg 84%
    15:00 +2°C° 0.6 mm 5 mps 746 mmHg 84%
    16:00 +2°C° 0.6 mm 5 mps 746 mmHg 84%
    17:00 +2°C° 0.6 mm 5 mps 746 mmHg 85%
    18:00 +1°C° 0.1 mm 5 mps 746 mmHg 85%
    19:00 +1°C° 0.1 mm 5 mps 746 mmHg 84%
    20:00 +1°C° 0.1 mm 5 mps 745 mmHg 84%
    21:00 +1°C° 0 mm 5 mps 746 mmHg 84%
    22:00 0°C° 0 mm 5 mps 746 mmHg 85%
    23:00 0°C° 0 mm 5 mps 746 mmHg 85%

    Tomorrow, 21 November, Tuesday

    Time Temperature Precipitation Wind Pressure Humidity
    00:00 0°C° 0 mm 5 mps 746 mmHg 85%
    01:00 -1°C° 0 mm 5 mps 746 mmHg 85%
    02:00 -1°C° 0 mm 4 mps 747 mmHg 85%
    03:00 -1°C° 0 mm 4 mps 747 mmHg 84%
    04:00 -1°C° 0 mm 4 mps 747 mmHg 84%
    05:00 -1°C° 0 mm 4 mps 747 mmHg 84%
    06:00 0°C° 0 mm 3 mps 747 mmHg 83%
    07:00 0°C° 0 mm 3 mps 747 mmHg 83%
    08:00 0°C° 0 mm 3 mps 747 mmHg 83%
    09:00 -1°C° 0 mm 4 mps 747 mmHg 80%
    10:00 0°C° 0 mm 4 mps 748 mmHg 76%
    11:00 +1°C° 0 mm 4 mps 748 mmHg 72%
    12:00 +1°C° 0 mm 4 mps 748 mmHg 72%
    13:00 +1°C° 0 mm 4 mps 748 mmHg 72%
    14:00 +1°C° 0 mm 4 mps 748 mmHg 71%
    15:00 +1°C° 0 mm 4 mps 748 mmHg 74%
    16:00 0°C° 0 mm 4 mps 748 mmHg 76%
    17:00 0°C° 0 mm 4 mps 748 mmHg 79%
    18:00 0°C° 0 mm 4 mps 749 mmHg 79%
    19:00 0°C° 0 mm 4 mps 749 mmHg 79%
    20:00 0°C° 0 mm 4 mps 749 mmHg 79%
    21:00 -1°C° 0 mm 4 mps 749 mmHg 79%
    22:00 -1°C° 0 mm 4 mps 749 mmHg 80%
    23:00 -1°C° 0 mm 4 mps 750 mmHg 80%

    Day after tomorrow, 22 November, Wednesday

    Time Temperature Precipitation Wind Pressure Humidity
    00:00 -1°C° 0 mm 4 mps 750 mmHg 80%
    01:00 -1°C° 0 mm 4 mps 750 mmHg 80%
    02:00 -1°C° 0 mm 4 mps 750 mmHg 80%
    03:00 -1°C° 0 mm 4 mps 750 mmHg 80%
    04:00 -1°C° 0 mm 4 mps 751 mmHg 79%
    05:00 -1°C° 0 mm 4 mps 751 mmHg 79%
    06:00 -1°C° 0 mm 4 mps 751 mmHg 77%
    07:00 -1°C° 0 mm 4 mps 751 mmHg 76%
    08:00 -1°C° 0 mm 4 mps 751 mmHg 75%
    09:00 0°C° 0 mm 4 mps 752 mmHg 70%
    10:00 0°C° 0 mm 4 mps 752 mmHg 65%
    11:00 +1°C° 0 mm 4 mps 752 mmHg 59%
    12:00 +1°C° 0 mm 4 mps 752 mmHg 58%
    13:00 +1°C° 0 mm 4 mps 752 mmHg 57%
    14:00 +1°C° 0 mm 4 mps 752 mmHg 56%
    15:00 0°C° 0 mm 4 mps 752 mmHg 59%
    16:00 0°C° 0 mm 4 mps 753 mmHg 63%
    17:00 0°C° 0 mm 3 mps 753 mmHg 67%
    18:00 -1°C° 0 mm 3 mps 753 mmHg 69%
    19:00 -1°C° 0 mm 3 mps 753 mmHg 71%
    20:00 -1°C° 0 mm 3 mps 753 mmHg 73%
    21:00 -2°C° 0 mm 3 mps 754 mmHg 75%
    22:00 -2°C° 0 mm 3 mps 754 mmHg 77%
    23:00 -2°C° 0 mm 3 mps 754 mmHg 78%

    23 November, Thursday

    Time Temperature Precipitation Wind Pressure Humidity
    00:00 -2°C° 0 mm 3 mps 754 mmHg 79%
    01:00 -3°C° 0 mm 4 mps 754 mmHg 80%
    02:00 -3°C° 0 mm 4 mps 754 mmHg 82%
    03:00 -3°C° 0 mm 4 mps 755 mmHg 82%
    04:00 -3°C° 0 mm 4 mps 755 mmHg 83%
    05:00 -4°C° 0 mm 4 mps 755 mmHg 84%
    06:00 -3°C° 0 mm 4 mps 755 mmHg 84%
    07:00 -3°C° 0 mm 4 mps 755 mmHg 83%
    08:00 -4°C° 0 mm 5 mps 756 mmHg 83%
    09:00 -2°C° 0 mm 5 mps 756 mmHg 75%
    10:00 -1°C° 0 mm 5 mps 756 mmHg 68%
    11:00 0°C° 0 mm 5 mps 756 mmHg 61%
    12:00 0°C° 0 mm 5 mps 756 mmHg 59%
    13:00 0°C° 0 mm 5 mps 756 mmHg 58%
    14:00 +1°C° 0 mm 5 mps 756 mmHg 56%
    15:00 0°C° 0 mm 5 mps 756 mmHg 62%
    16:00 -1°C° 0 mm 5 mps 757 mmHg 68%
    17:00 -3°C° 0 mm 4 mps 757 mmHg 73%
    18:00 -3°C° 0 mm 4 mps 757 mmHg 75%
    19:00 -3°C° 0 mm 4 mps 758 mmHg 77%
    20:00 -4°C° 0 mm 4 mps 758 mmHg 79%
    21:00 -4°C° 0 mm 4 mps 758 mmHg 79%
    22:00 -4°C° 0 mm 4 mps 758 mmHg 79%
    23:00 -4°C° 0 mm 3 mps 758 mmHg 80%

    24 November, Friday

    Time Temperature Precipitation Wind Pressure Humidity
    00:00 -4°C° 0 mm 3 mps 758 mmHg 80%
    01:00 -5°C° 0 mm 3 mps 758 mmHg 79%
    02:00 -5°C° 0 mm 3 mps 759 mmHg 79%
    03:00 -5°C° 0 mm 3 mps 759 mmHg 79%
    04:00 -5°C° 0 mm 3 mps 759 mmHg 79%
    05:00 -5°C° 0 mm 3 mps 759 mmHg 80%
    06:00 -4°C° 0 mm 2 mps 759 mmHg 79%
    07:00 -4°C° 0 mm 2 mps 760 mmHg 78%
    08:00 -4°C° 0 mm 2 mps 760 mmHg 78%
    09:00 -4°C° 0 mm 2 mps 760 mmHg 73%
    10:00 -3°C° 0 mm 2 mps 760 mmHg 69%
    11:00 0°C° 0 mm 1 mps 761 mmHg 64%
    12:00 0°C° 0 mm 1 mps 760 mmHg 63%
    13:00 +1°C° 0 mm 1 mps 760 mmHg 61%
    14:00 +1°C° 0 mm 1 mps 760 mmHg 60%
    15:00 +1°C° 0 mm 1 mps 761 mmHg 64%
    16:00 0°C° 0 mm 1 mps 761 mmHg 68%
    17:00 -1°C° 0 mm 1 mps 761 mmHg 72%
    18:00 -2°C° 0 mm 0 mps 761 mmHg 73%
    19:00 -2°C° 0 mm 0 mps 762 mmHg 74%
    20:00 -2°C° 0 mm 0 mps 762 mmHg 76%
    21:00 -2°C° 0 mm 0 mps 762 mmHg 76%
    22:00 -2°C° 0 mm 1 mps 762 mmHg 77%
    23:00 -2°C° 0 mm 1 mps 762 mmHg 78%

    25 November, Saturday

    Time Temperature Precipitation Wind Pressure Humidity
    00:00 -2°C° 0 mm 1 mps 762 mmHg 77%
    01:00 -2°C° 0 mm 1 mps 762 mmHg 77%
    02:00 -2°C° 0 mm 1 mps 762 mmHg 77%
    03:00 -2°C° 0 mm 1 mps 762 mmHg 76%
    04:00 -2°C° 0 mm 1 mps 762 mmHg 75%
    05:00 -2°C° 0 mm 1 mps 762 mmHg 74%
    06:00 -2°C° 0 mm 1 mps 762 mmHg 73%
    07:00 -3°C° 0 mm 2 mps 763 mmHg 72%
    08:00 -3°C° 0 mm 2 mps 763 mmHg 71%
    09:00 -2°C° 0 mm 2 mps 763 mmHg 65%
    10:00 -1°C° 0 mm 2 mps 762 mmHg 60%
    11:00 0°C° 0 mm 3 mps 762 mmHg 54%
    12:00 +1°C° 0 mm 3 mps 762 mmHg 54%
    13:00 +1°C° 0 mm 3 mps 762 mmHg 53%
    14:00 +2°C° 0 mm 3 mps 762 mmHg 53%
    15:00 +1°C° 0 mm 3 mps 762 mmHg 57%
    16:00 0°C° 0 mm 3 mps 762 mmHg 62%
    17:00 -1°C° 0 mm 3 mps 762 mmHg 66%
    18:00 -1°C° 0 mm 3 mps 762 mmHg 68%
    19:00 -1°C° 0 mm 3 mps 762 mmHg 69%
    20:00 -1°C° 0 mm 3 mps 762 mmHg 71%
    21:00 -1°C° 0 mm 3 mps 762 mmHg 72%
    22:00 -1°C° 0 mm 3 mps 762 mmHg 73%
    23:00 -1°C° 0 mm 3 mps 762 mmHg 74%
    Show more